Regional Weather Roundup
Issued by NWS

Home | Current Version | Previous Version | Text Only | Print | Product List | Glossary On
Versions: 1 2 3 4 5 6 7 8 9 10 11 12 13 14 15 16 17 18 19 20 21 22 23 24 25 26 27 28 29 30 31 32 33 34 35 36 37 38 39 40 41 42 43 44 45 46 47 48 49 50
000
ASUS43 KOAX 231202
RWRNE

WEATHER ROUNDUP FOR NEBRASKA
NATIONAL WEATHER SERVICE OMAHA NE
700 AM CDT SAT AUG 23 2014

NOTES: SATELLITE DATA IS BEING USED TO AUGMENT CLOUD COVER ABOVE
       12000 FEET.
       "FAIR" INDICATES FEW OR NO CLOUDS BELOW 12,000 FEET WITH NO
       SIGNIFICANT WEATHER AND/OR OBSTRUCTIONS TO VISIBILITY.

  * THESE STATIONS DO NOT REPORT WEATHER SUCH AS RAIN...SNOW OR FOG.

NEZ001>004-019>022-054>056-231300-
NEBRASKA PANHANDLE

CITY           SKY/WX    TMP DP  RH WIND       PRES   REMARKS
SCOTTSBLUFF    CLOUDY    63  61  93 CALM      29.92F
6HR MIN TEMP:  61; 6HR MAX TEMP:  64;

ALLIANCE       CLOUDY    61  59  93 CALM      29.91F
6HR MIN TEMP:  61; 6HR MAX TEMP:  63; 6HR PCP:  0.26;

CHADRON        CLOUDY    62  61  96 NW3       29.90F
6HR MIN TEMP:  62; 6HR MAX TEMP:  68; 6HR PCP:  0.09;

KIMBALL        MOCLDY    59  58  97 CALM      29.95R
SIDNEY         FOG       62  60  93 NW3       29.94F VSB 1/4
6HR MIN TEMP:  60; 6HR MAX TEMP:  62;

$$

NEZ057>060-069>072-079>082-231300-
SOUTHWEST NEBRASKA

CITY           SKY/WX    TMP DP  RH WIND       PRES   REMARKS
NORTH PLATTE   CLOUDY    66  65  96 N3        29.89F
6HR MIN TEMP:  65; 6HR MAX TEMP:  67; 6HR PCP:  0.06;

IMPERIAL       MOCLDY    65  63  93 E5        29.88F
6HR MIN TEMP:  65; 6HR MAX TEMP:  66;

LEXINGTON      PTCLDY    67  65  94 SE5       29.88R
MCCOOK         PTCLDY    65  64  97 N6        29.87S
6HR MIN TEMP:  65; 6HR MAX TEMP:  69;

OGALLALA       MOCLDY    62  61  97 CALM      29.89F FOG
$$

NEZ005>010-023>029-035>040-094-231300-
NORTH CENTRAL NEBRASKA

CITY           SKY/WX    TMP DP  RH WIND       PRES   REMARKS
VALENTINE      CLOUDY    66  65  96 NE3       29.87R
6HR MIN TEMP:  65; 6HR MAX TEMP:  70; 6HR PCP:  0.50;

AINSWORTH      CLOUDY    66  65  99 S7        29.89R
BROKEN BOW     CLOUDY    67  66  97 SE3       29.91S
6HR MIN TEMP:  65; 6HR MAX TEMP:  68; 6HR PCP:  0.10;

O`NEILL        CLOUDY    68  67  97 CALM      29.91R
ORD            MOCLDY    66  64  93 CALM      29.88R
6HR MIN TEMP:  66; 6HR MAX TEMP:  68; 6HR PCP:  0.19;

THEDFORD       CLOUDY    66  65  97 CALM      29.91S
$$

NEZ041-046>049-061>064-073>077-083>087-231300-
SOUTH CENTRAL NEBRASKA

CITY           SKY/WX    TMP DP  RH WIND       PRES   REMARKS
GRAND ISLAND   PTCLDY    68  65  90 SE7       29.86F
6HR MIN TEMP:  67; 6HR MAX TEMP:  69; 6HR PCP:  0.07;

AURORA         PTCLDY    69  69 100 SE8       29.86F
HASTINGS       PTCLDY    68  64  87 SE14      29.85F
6HR MIN TEMP:  67; 6HR MAX TEMP:  69; 6HR PCP:  0.10;

HEBRON         CLEAR     69  65  86 E5        29.87S
HOLDREGE       CLOUDY    68  66  93 SE12      29.87R
KEARNEY *      MOCLDY    66  64  94 E7        29.88R
YORK           MOCLDY    68 N/A N/A SE15G22   29.87S
$$

NEZ011>018-030>034-042>045-231300-
NORTHEAST NEBRASKA

CITY           SKY/WX    TMP DP  RH WIND       PRES   REMARKS
NORFOLK        MOCLDY    68  66  93 E7        29.87S
6HR MIN TEMP:  68; 6HR MAX TEMP:  70; 6HR PCP:  0.17;

ALBION         MOCLDY    66  64  93 SE5       29.89R
BLAIR          CLOUDY    70  67  92 E10       29.87F
FREMONT        CLOUDY    69  67  93 E3        29.87S
TEKAMAH        CLOUDY    70  68  93 CALM      29.87R
6HR MIN TEMP:  70; 6HR MAX TEMP:  73; 6HR PCP:  0.20;

WAYNE          CLOUDY    69  67  96 SE6       29.88F FOG
$$

NEZ050>053-065>068-078-088>093-231300-
SOUTHEAST NEBRASKA

CITY           SKY/WX    TMP DP  RH WIND       PRES   REMARKS
LINCOLN        MOCLDY    70  67  90 E6        29.87F
6HR MIN TEMP:  69; 6HR MAX TEMP:  73; 6HR PCP:  0.21;

OMAHA EPPLEY   CLOUDY    72  67  84 E6        29.88F
6HR MIN TEMP:  71; 6HR MAX TEMP:  77; 6HR PCP:  0.59;

BEATRICE       PTCLDY    69  68  96 E6        29.87F
FALLS CITY     MOCLDY    72  70  93 E7        29.89F
6HR MIN TEMP:  72; 6HR MAX TEMP:  77; 6HR PCP:  0.01;

NEBRASKA CITY  CLOUDY    70  70 100 E12       29.89S
PLATTSMOUTH    CLOUDY    71  68  92 E10       29.87F
$$

NEZ044-045-051>053-067-231300-
OMAHA AREA

CITY           SKY/WX    TMP DP  RH WIND       PRES   REMARKS
OMAHA EPPLEY   CLOUDY    72  67  84 E6        29.88F
6HR MIN TEMP:  71; 6HR MAX TEMP:  77; 6HR PCP:  0.59;

BLAIR          CLOUDY    70  67  92 E10       29.87F
FREMONT        CLOUDY    69  67  93 E3        29.87S
MILLARD        CLOUDY    71  68  92 CALM      29.87S
OFFUTT AFB     DRIZZLE   71  71 100 NE7       29.86F
PLATTSMOUTH    CLOUDY    71  68  92 E10       29.87F
WAHOO          FAIR      69  66  91 SE5       29.86F
$$


USA.gov is the U.S. government's official web portal to all federal, state and local government web resources and services.